(111) Ate
ephemeris date magn radius delta ra dec elong phase
Today13 Jul 202613.32.380 AU3.244 AU05h32m+26°10'26.7°11.1°
Opposition31 Jan 202710.82.334 AU1.348 AU08h53m+16°41'179.2°0.3°
(111) Ate - 2026-07-13
astro.vanbuitenen.nl


 
-1 year
-1 month
-1 day
Now
+1 day
+1 month
+1 year

The interactive orbit chart above shows the body's path through the solar system and its position at the given date. Green and blue lines are shown perpendicular to the ecliptic plane: Green if the path is above the ecliptic plane, blue if it is below. (Left-click and drag to rotate the view; Right-click and drag to move the view; Use scroll wheel to zoom in our out.)

The orbital elements of Ate are:

            e (Eccentricity)                : 0.1035803
            a (Semimajor axis)              : 2.5926626
            i (Inclination)                 : 4.93243
            Ω (Longitude of ascending node) : 305.66148
            ω (Argument of perihelion)      : 168.46344
            M (Mean anomaly)                : 317.88075
            Epoch                           : 2026 Jun 09

            L (Longitude of perihelion)     : 294.16650
            B (Latitude of perihelion)      : 0.98528
            P (Orbital period in years)     : 4.17            
        

The light curve chart below shows the estimated development of the minor planet's magnitude.


The all-sky chart below shows the path of the minor planet over the same period as the light curve. The current position is marked yellow.





The following chart shows the path of the minor planet in the next few days. The field of view is optimized for (~10x50) binoculars and finderscopes.




Ephemerides:
Date       Time       RA (2000)    DEC (2000)    delta   radius  elong  phase   PA    magn
2026-07-13 00:00 UT   05 32 05.2   +26 10 36     3.244    2.380   26.7   11.1   273   13.3 
2026-07-13 09:59 UT   05 32 57.4   +26 11 01     3.242    2.380   26.9   11.1   273   13.3 
2026-07-14 00:00 UT   05 34 10.8   +26 11 33     3.238    2.380   27.2   11.2   273   13.3 
2026-07-15 00:00 UT   05 36 16.3   +26 12 24     3.232    2.379   27.7   11.4   273   13.3 
2026-07-16 00:00 UT   05 38 21.7   +26 13 09     3.226    2.378   28.1   11.6   273   13.3 
2026-07-17 00:00 UT   05 40 27.1   +26 13 47     3.219    2.377   28.6   11.8   273   13.3 
2026-07-18 00:00 UT   05 42 32.3   +26 14 19     3.213    2.377   29.1   12.0   273   13.3 
2026-07-19 00:00 UT   05 44 37.5   +26 14 46     3.206    2.376   29.6   12.2   274   13.3 
2026-07-20 00:00 UT   05 46 42.6   +26 15 05     3.199    2.375   30.1   12.4   274   13.3 
2026-07-21 00:00 UT   05 48 47.6   +26 15 19     3.193    2.374   30.5   12.6   274   13.3 
2026-07-22 00:00 UT   05 50 52.4   +26 15 27     3.186    2.374   31.0   12.7   274   13.3 
2026-07-23 00:00 UT   05 52 57.2   +26 15 28     3.179    2.373   31.5   12.9   274   13.3 
2026-07-24 00:00 UT   05 55 01.8   +26 15 24     3.172    2.372   32.0   13.1   274   13.3 
2026-07-25 00:00 UT   05 57 06.3   +26 15 13     3.165    2.372   32.5   13.3   274   13.4 
2026-07-26 00:00 UT   05 59 10.6   +26 14 56     3.158    2.371   33.0   13.5   274   13.4 
2026-07-27 00:00 UT   06 01 14.8   +26 14 33     3.150    2.370   33.5   13.7   274   13.4 
2026-07-28 00:00 UT   06 03 18.9   +26 14 05     3.143    2.370   34.0   13.8   275   13.4 
2026-07-29 00:00 UT   06 05 22.8   +26 13 30     3.136    2.369   34.4   14.0   275   13.4 
2026-07-30 00:00 UT   06 07 26.5   +26 12 49     3.128    2.368   34.9   14.2   275   13.4 
2026-07-31 00:00 UT   06 09 30.1   +26 12 02     3.121    2.368   35.4   14.4   275   13.4 


    Terminology:
            
    delta:  distance between minor planet and earth in AU
    radius: distance between minor planet and sun in AU
    magn:   magnitude (brightness) estimate    
    ra:     right ascension in hours (24h = 360deg)
    dec:    declination in degrees
    elong:  elongation in degrees (angle sun-earth-minor planet)    
    phase:  phase angle in degrees (angle sun-minor planet-earth)        
    AU:     Astronomical Unit (mean distance between earth and sun: 149597870.7 km
    

Orbital elements provided by the MPC (Minor Planet Center).
Calculations by a modified version of AAPlus, a C# implementation of the AA+ project by PJ Naughter from the algorithms presented in the book "Astronomical Algorithms" by Jean Meeus.
NGC2000 dso catalog and star labels from VizieR as provided by the Strasbourg astronomical Data Center.
Tycho2 catalog from the ESO archive.